Location: Sobotiste
(48.7170°N, 17.4000°E)
Time: 08:35:34
(UTC+02:00)

YUBILEINY - Pass Details

Date: 13 March 2026
Orbit: 1477 x 1509 km, 82.5° (Epoch: 17 April)

Event Time Altitude Azimuth Distance (km) Brightness Sun altitude
Rises 03:37:17 0° 349° (NNW) 4,626 ? -25.0°
Reaches altitude 10° 03:40:10 10° 348° (NNW) 3,638 ? -24.6°
Maximum altitude 03:48:53 77° 265° (W) 1,517 ? -23.3°
Drops below altitude 10° 03:57:31 10° 181° (S) 3,606 ? -22.0°
Sets 04:00:22 0° 180° (S) 4,582 ? -21.5°
